www.pogodaiklimat.ru
ПОГОДА в Абдали

Архив погоды в Абдали (Кувейт)

Время
(UTC), дата
09 6.08
12 6.08
15 6.08
18 6.08
21 6.08
00 7.08
03 7.08
06 7.08
09 7.08
12 7.08
15 7.08
18 7.08
21 7.08
00 8.08
03 8.08
06 8.08
09 8.08
12 8.08
15 8.08
18 8.08
21 8.08
00 9.08
03 9.08
06 9.08
09 9.08
12 9.08
15 9.08
18 9.08
21 9.08
00 10.08
03 10.08
09 10.08
12 10.08
15 10.08
18 10.08
21 10.08
00 11.08
03 11.08
06 11.08
09 11.08
12 11.08
15 11.08
18 11.08
21 11.08
00 12.08
03 12.08
06 12.08
09 12.08
12 12.08
15 12.08
18 12.08
21 12.08
00 13.08
03 13.08
06 13.08
Ветер
(напр.,м/с)
Видим. Явления Облачность Т
(С)
Тd
(С)
f
(%)
Тe
(С)
Тes
(С)
Комфортность P
(гПа)
Po
(гПа)
Тmin
(С)
Tmax
(С)
R
(мм)
R24
(мм)
S
(см)
Ю 2-5
{6}
11 км н/о +46.6 +16.0 17 +48 +48 опасность
перегрева
994.6 987.2 341
ЮВ 2-5
{7}
14 км н/о +46.6 +22.0 25 +54 +54 опасность
перегрева
993.7 986.3 281
Ю 2-5
{8}
10 км н/о +40.1 +25.9 45 +55 +55 опасность
перегрева
993.8 986.2 44
ЮЗ 1-2
{8}
6000 м дымка н/о +36.4 +24.7 51 +49 +49 опасность
перегрева
994.5 986.8
З 1-1
{3}
7000 м дымка н/о +33.7 +25.5 62 +48 +48 опасность
перегрева
994.2 986.5 +28.8 +48.1
Ю 1-3
{3}
5000 м дымка н/о +32.7 +26.0 68 +48 +48 опасность
перегрева
994.0 986.3
СЗ 2-4
{4}
12 км н/о +35.0 +17.0 34 +38 +38 очень
душно
994.6 986.9 6
С 3-5
{8}
10 км н/о +43.2 +13.1 17 +43 +43 опасность
перегрева
995.3 987.8 224
СЗ 3-6
{9}
14 км н/о +49.3 +16.2 15 +51 +51 опасность
перегрева
993.9 986.6 349
В 3-8
{9}
15 км н/о +49.5 +15.0 14 +50 +50 опасность
перегрева
992.7 985.4 265
Ю 2-5
{9}
10 км н/о +42.4 +22.5 32 +50 +50 опасность
перегрева
992.9 985.4 38
ЮЗ 1-2
{9}
9000 м дымка н/о +38.7 +21.8 38 +46 +46 опасность
перегрева
995.5 987.9
ЮВ 2-6
{10}
4900 м дымка н/о +35.6 +29.3 70 +60 +60 опасность
перегрева
995.9 988.2 +32.6 +51.2
ЮЗ 1-2
{10}
3500 м дымка н/о +33.1 +29.5 81 +58 +58 опасность
перегрева
995.9 988.2
С 2-4
{6}
11 км н/о +34.1 +21.6 48 +35 +35 очень
жарко
996.7 989.0 5
СВ 2-6
{7}
6000 м дымка н/о +40.7 +14.8 22 +42 +42 опасность
перегрева
998.1 990.5 216
В 3-6
{8}
9000 м дымка н/о +47.0 +18.0 19 +50 +50 опасность
перегрева
997.0 989.6 319
СВ 5-10
{13}
16 км н/о +49.6 +15.2 14 +51 +51 опасность
перегрева
995.7 988.3 267
СВ 6-11
{12}
19 км н/о +47.0 +8.3 10 +45 +45 опасность
перегрева
995.6 988.2 46
С 3-6
{12}
16 км н/о +42.3 +9.8 15 +41 +41 опасность
перегрева
997.4 989.9
С 4-7
{7}
13 км н/о +39.2 +9.9 17 +38 +38 очень
жарко
996.6 989.0 +32.3 +50.1
С 4-7
{7}
11 км н/о +35.8 +10.0 21 +35 +35 очень
жарко
996.0 988.3
С 3-7
{7}
16 км н/о +33.9 +8.1 20 +32 +32 жарко 996.6 988.9 5
С 6-11
{13}
16 км н/о +42.7 +4.9 10 +40 +40 очень
жарко
996.8 989.3 248
СВ 6-14
{17}
7000 м дым н/о +49.3 +10.7 11 +48 +48 опасность
перегрева
995.4 988.0 356
СВ 7-15
{17}
10 км н/о +50.3 +8.9 9 +48 +48 опасность
перегрева
993.5 986.2 276
СВ 6-13
{16}
12 км н/о +46.7 +6.8 9 +44 +44 опасность
перегрева
993.7 986.3 46
С 4-9
{16}
15 км н/о +41.4 +8.1 14 +39 +39 очень
жарко
995.5 988.0
С 3-6
{9}
15 км н/о +36.6 +8.2 18 +35 +35 очень
жарко
994.8 987.1 +33.4 +51.1
С 3-6
{9}
14 км н/о +34.5 +7.5 19 +33 +33 жарко 994.4 986.7
С 4-7
{7}
19 км н/о +33.2 +7.7 21 +32 +32 жарко 995.6 987.9 5
СВ 8-16
{16}
13 км н/о +47.8 +11.2 12 +47 +47 опасность
перегрева
994.4 987.0 381
СВ 7-14
{17}
17 км н/о +49.9 +8.4 9 +48 +48 опасность
перегрева
993.2 985.9 303
С 6-13
{15}
13 км н/о +46.5 +9.1 11 +45 +45 опасность
перегрева
993.4 986.0 54
С 5-9
{15}
2300 м дым н/о +41.2 +11.2 17 +40 +40 очень
жарко
995.6 988.1
С 3-6
{10}
1600 м дымка н/о +36.9 +11.5 22 +36 +36 очень
жарко
995.3 987.7 +32.3 +50.3
С 3-7
{10}
11 км н/о +34.3 +12.2 26 +34 +34 очень
жарко
995.3 987.6
СЗ 4-8
{8}
8000 м дымка н/о +33.1 +11.8 27 +33 +33 жарко 995.9 988.2 5
С 7-12
{13}
7000 м дым н/о +39.1 +11.5 19 +38 +38 очень
жарко
996.4 988.8 238
СВ 6-14
{17}
7000 м дым н/о +46.6 +12.3 14 +46 +46 опасность
перегрева
994.4 987.0 361
СВ 5-10
{17}
7000 м дым н/о +48.4 +11.9 12 +48 +48 опасность
перегрева
993.5 986.1 279
СВ 5-12
{12}
10 км н/о +46.8 +5.5 9 +44 +44 опасность
перегрева
993.4 986.0 44
С 4-10
{14}
15 км н/о +40.8 +11.8 18 +40 +40 очень
жарко
995.8 988.2
С 3-5
{12}
2700 м дымка н/о +36.8 +12.3 23 +37 +37 очень
жарко
996.2 988.5 +32.6 +49.2
С 4-9
{12}
20 км н/о +34.0 +10.5 24 +33 +33 жарко 995.9 988.2
С 3-6
{8}
18 км н/о +32.1 +11.9 29 +32 +32 жарко 996.6 988.8 5
С 7-12
{14}
7000 м дымка н/о +39.5 +12.5 20 +39 +39 очень
жарко
997.1 989.5 240
С 7-14
{15}
9000 м дым н/о +46.9 +10.0 12 +46 +46 опасность
перегрева
995.2 987.8 365
СВ 6-14
{17}
16 км н/о +48.5 +10.0 11 +47 +47 опасность
перегрева
993.7 986.3 293
С 6-13
{15}
15 км н/о +45.9 +5.8 9 +43 +43 опасность
перегрева
993.4 986.0 45
С 4-9
{15}
11 км н/о +40.2 +8.7 15 +38 +38 очень
жарко
995.4 987.8
С 4-8
{9}
2100 м дым н/о +36.5 +8.6 18 +35 +35 очень
жарко
994.9 987.2 +32.0 +49.2
С 4-10
{11}
17 км н/о +35.1 +9.1 20 +34 +34 очень
жарко
994.7 987.0
С 3-5
{10}
18 км н/о +32.6 +9.4 24 +32 +32 жарко 995.8 988.0 5
СВ 5-10
{13}
13 км н/о +39.9 +9.7 16 +38 +38 очень
жарко
996.2 988.6 245
Местоположение метеостанции Абдали (Кувейт): широта 30.08 долгота 47.70 высота над уровнем моря 70 м.
В архиве по умолчанию представлена погода в Абдали за последнюю неделю. Архивные данные за месяц целиком и за предыдущие месяцы, начиная с января 2011 года, Вы можете получить, выбрав интересующий диапазон дат из раскрывающегося списка и нажав кнопку "Найти!".
*Определитесь, кто Вы:
Внимание! Время в таблицах - всемирное. Для получения местного времени необходимо прибавить поправку, которая равна 3 ч.
Смотрите также архив погоды в соседних городах и на ближайших метеорологических станциях:
Партнеры нашего сайта:      
Пояснения к столбцам:
  • Ветер - указаны скорость ветра в м/с - средняя за 10 мин, порывы в срок и между сроками (в фигурных скобках) и направление, откуда дует ветер: С - северный,
  • СВ - северо-восточный, В - восточный, ЮВ - юго-восточный, Ю - южный, ЮЗ - юго-западный, З - западный, СЗ - северо-западный.
  • Видимость - горизонтальная дальность видимости в метрах или километрах. При видимости от 1 до 10 км при отсутствии осадков обычно наблюдается дымка, при ухудшении видимости до 1 км и менее - туман. В сухую погоду видимость может ухудшаться дымом, пылью или мглою.
  • Явления - указаны атмосферные явления, наблюдавшиеся в срок или в последний час перед сроком; фигурными скобками обозначены явления, наблюдавшиеся между сроками (за 1-3 часа до срока); квадратными скобками обозначены град или гололедные отложения с указанием их диаметра в мм.
  • Облачность - указаны через наклонную черту общая и нижняя облачность в баллах и высота нижней границы облаков в метрах; квадратными скобками обозначены формы облаков: Ci - перистые, Cs - перисто-слоистые, Cc - перисто-кучевые, Ac - высококучевые, As - высокослоистые, Sc - слоисто-кучевые, Ns - слоисто-дождевые, Cu - кучевые, Cb - кучево-дождевые. Подробнее классификацию облаков см. в Атласе облаков (PDF).
  • T - Температура воздуха - температура, измеренная на высоте 2 м над землей.
  • Td - Температура точки росы - температура, при понижении до которой содержащийся в воздухе водяной пар достигнет насыщения.
  • f - Относительная влажность воздуха - влажноcть воздуха, измеренная на высоте 2 м над землей.
  • Te - Эффективная температура - температура, которую ощущает одетый по сезону человек в тени. Характеристика душности погоды. При расчете учитывается влияние влажности воздуха и скорости ветра на теплоощущения человека.
  • Tes - Эффективная температура на солнце - температура, которую ощущает человек, с поправкой на солнечный нагрев. Характеристика знойности погоды. Зависит от высоты солнца над горизонтом, облачности и скорости ветра. Ночью, в пасмурную погоду, а также при ветре 12 м/с и более поправка равна нулю.
  • P - Атмосферное давление - приведенное к уровню моря атмосферное давление.
  • Po - Атмосферное давление - измеренное на уровне метеостанции атмосферное давление.
  • Tmin - Минимальная температура - минимум температуры воздуха на высоте 2 м над землей.
  • Tmax - Максимальная температура - максимум температуры воздуха на высоте 2 м над землей.
  • R - Количество осадков - Количество выпавших осадков за период времени, мм. При наведении курсора мыши на число - период времени, за который выпало указанное количество осадков.
  • R24 - Количество осадков - Количество выпавших осадков за 24 часа, мм.
  • S - Снежный покров - Высота снежного покрова, см. При наведении курсора мыши на число - состояние снежного покрова и степень покрытия местности в баллах.